Tillbaka till svenska Fidonet
English   Information   Debug  
FILM   0/18
FNEWS_PUBLISH   5034
FN_SYSOP   42247
FN_SYSOP_OLD1   71952
FTP_FIDO   0/2
FTSC_PUBLIC   0/13979
FUNNY   0/4886
GENEALOGY.EUR   0/71
GET_INFO   105
GOLDED   0/408
HAM   0/16786
HOLYSMOKE   0/6791
HOT_SITES   0/1
HTMLEDIT   0/71
HUB203   466
HUB_100   264
HUB_400   39
HUMOR   0/29
IC   0/2851
INTERNET   0/424
INTERUSER   0/3
IP_CONNECT   719
JAMNNTPD   0/233
JAMTLAND   0/47
KATTY_KORNER   0/41
LAN   0/16
LINUX-USER   0/19
LINUXHELP   0/1155
LINUX   0/22427
LINUX_BBS   0/957
mail   18.68
mail_fore_ok   249
MENSA   0/341
MODERATOR   0/102
MONTE   0/992
MOSCOW_OKLAHOMA   0/1245
MUFFIN   0/783
MUSIC   0/321
N203_STAT   938
N203_SYSCHAT   313
NET203   321
NET204   69
NET_DEV   0/10
NORD.ADMIN   0/101
NORD.CHAT   0/2572
NORD.FIDONET   189
NORD.HARDWARE   0/28
NORD.KULTUR   0/114
NORD.PROG   0/32
NORD.SOFTWARE   0/88
NORD.TEKNIK   0/58
NORD   0/453
OCCULT_CHAT   0/93
OS2BBS   0/787
OS2DOSBBS   0/580
OS2HW   0/42
OS2INET   0/37
OS2LAN   0/134
OS2PROG   0/36
OS2REXX   0/113
OS2USER-L   207
OS2   0/4835
OSDEBATE   0/18996
PASCAL   0/490
PERL   0/457
PHP   0/45
POINTS   0/405
POLITICS   0/29554
POL_INC   0/14731
PSION   103
R20_ADMIN   1133
R20_AMATORRADIO   0/2
R20_BEST_OF_FIDONET   16
R20_CHAT   0/897
R20_DEPP   0/3
R20_DEV   400
R20_ECHO2   1934
R20_ECHOPRES   0/35
R20_ESTAT   0/719
R20_FIDONETPROG...
...RAM.MYPOINT
  0/2
R20_FIDONETPROGRAM   0/22
R20_FIDONET   0/248
R20_FILEFIND   0/24
R20_FILEFOUND   0/22
R20_HIFI   0/3
R20_INFO2   3827
R20_INTERNET   0/12940
R20_INTRESSE   0/60
R20_INTR_KOM   0/99
R20_KANDIDAT.CHAT   42
R20_KANDIDAT   28
R20_KOM_DEV   112
R20_KONTROLL   0/13360
R20_KORSET   0/18
R20_LOKALTRAFIK   0/24
R20_MODERATOR   0/1852
R20_NC   76
R20_NET200   245
R20_NETWORK.OTH...
...ERNETS
  0/13
R20_OPERATIVSYS...
...TEM.LINUX
  0/44
R20_PROGRAMVAROR   0/1
R20_REC2NEC   534
R20_SFOSM   0/341
R20_SF   0/108
R20_SPRAK.ENGLISH   0/1
R20_SQUISH   107
R20_TEST   2
R20_WORST_OF_FIDONET   20
RAR   0/9
RA_MULTI   106
RA_UTIL   0/162
REGCON.EUR   0/2072
REGCON   0/13
SCIENCE   0/1206
SF   0/239
SHAREWARE_SUPPORT   0/5146
SHAREWRE   0/14
SIMPSONS   0/169
STATS_OLD1   777/2539.065
STATS_OLD2   0/2530
STATS_OLD3   0/2395.095
STATS_OLD4   0/1692.25
SURVIVOR   0/495
SYSOPS_CORNER   0/3
SYSOP   0/84
TAGLINES   0/112
TEAMOS2   0/4530
TECH   0/2617
TEST.444   0/105
TRAPDOOR   0/19
TREK   0/755
TUB   0/290
UFO   0/40
UNIX   0/1316
USA_EURLINK   0/102
USR_MODEMS   0/1
VATICAN   0/2740
VIETNAM_VETS   0/14
VIRUS   0/378
VIRUS_INFO   0/201
VISUAL_BASIC   0/473
WHITEHOUSE   0/5187
WIN2000   0/101
WIN32   0/30
WIN95   0/4291
WIN95_OLD1   0/70272
WINDOWS   0/1517
WWB_SYSOP   0/419
WWB_TECH   0/810
ZCC-PUBLIC   0/1
ZEC   4

 
4DOS   0/134
ABORTION   0/7
ALASKA_CHAT   0/506
ALLFIX_FILE   0/1313
ALLFIX_FILE_OLD1   0/7997
ALT_DOS   0/152
AMATEUR_RADIO   0/1039
AMIGASALE   0/14
AMIGA   0/331
AMIGA_INT   0/1
AMIGA_PROG   0/20
AMIGA_SYSOP   0/26
ANIME   0/15
ARGUS   0/924
ASCII_ART   0/340
ASIAN_LINK   0/651
ASTRONOMY   0/417
AUDIO   0/92
AUTOMOBILE_RACING   0/105
BABYLON5   0/17862
BAG   135
BATPOWER   307/361
BBBS.ENGLISH   0/382
BBSLAW   0/109
BBS_ADS   0/5290
BBS_INTERNET   0/507
BIBLE   0/3563
BINKD   0/1119
BINKLEY   0/215
BLUEWAVE   0/2173
CABLE_MODEMS   0/25
CBM   0/46
CDRECORD   0/66
CDROM   0/20
CLASSIC_COMPUTER   0/378
COMICS   0/15
CONSPRCY   0/899
COOKING   42383
COOKING_OLD1   0/24719
COOKING_OLD2   0/40862
COOKING_OLD3   0/37489
COOKING_OLD4   0/35496
COOKING_OLD5   9370
C_ECHO   0/189
C_PLUSPLUS   0/31
DIRTY_DOZEN   0/201
DOORGAMES   0/2388
DOS_INTERNET   0/196
duplikat   6102
ECHOLIST   12316/18295
EC_SUPPORT   0/318
ELECTRONICS   0/359
ELEKTRONIK.GER   1534
ENET.LINGUISTIC   0/13
ENET.POLITICS   0/4
ENET.SOFT   0/11701
ENET.SYSOP   34411
ENET.TALKS   0/32
ENGLISH_TUTOR   0/2000
EVOLUTION   0/1335
FDECHO   0/217
FDN_ANNOUNCE   0/7068
FIDONEWS   25226
FIDONEWS_OLD1   0/49742
FIDONEWS_OLD2   0/35949
FIDONEWS_OLD3   0/30874
FIDONEWS_OLD4   0/37224
FIDO_SYSOP   12977
FIDO_UTIL   0/180
FILEFIND   0/209
FILEGATE   0/212
Möte HAM, 16786 texter
 lista första sista föregående nästa
Text 3903, 880 rader
Skriven 2010-08-26 23:00:18 av Amsat List (1:323/120.0)
Ärende: [keps]  orb10238.amsa
=============================
[keps]  orb10238.amsa

Return-Path: <keps-bounces@amsat.org>
X-Rcpt: craig.healy@chowda.com
X-UIDL: 1282877927.6223

SB KEPS @ AMSAT  $ORB10238.O
Orbital Elements  10238.OSCAR

HR AMSAT ORBITAL ELEMENTS FOR OSCAR SATELLITES
FROM WA5QGD FORT WORTH,TX August 26, 2010
Send Subscribe/unsubscribe to KEPS at http://www.amsat.org/mailman/listinfo/kep
BID: ORB10238.O
TO ALL RADIO AMATEURS BT

Satellite: AO-07
Catalog number: 07530
Epoch time:      10237.63411544
Element set:     861
Inclination:      101.4014 deg
RA of node:       250.8064 deg
Eccentricity:    0.0011776
Arg of perigee:   136.4386 deg
Mean anomaly:     223.7615 deg
Mean motion:   12.53579263 rev/day
Decay rate:       -2.7e-07 rev/day^2
Epoch rev:           63715
Checksum:              279

Satellite: FO-29
Catalog number: 24278
Epoch time:      10237.91426970
Element set:    0389
Inclination:      098.5164 deg
RA of node:       057.4098 deg
Eccentricity:    0.0349987
Arg of perigee:   303.0867 deg
Mean anomaly:     053.7128 deg
Mean motion:   13.52952598 rev/day
Decay rate:        4.6e-07 rev/day^2
Epoch rev:           69253
Checksum:              359

Satellite: SO-33
Catalog number: 25509
Epoch time:      10237.73353830
Element set:    0782
Inclination:      031.4320 deg
RA of node:       115.2359 deg
Eccentricity:    0.0353899
Arg of perigee:   178.0400 deg
Mean anomaly:     182.1704 deg
Mean motion:   14.28327624 rev/day
Decay rate:       2.37e-06 rev/day^2
Epoch rev:           61800
Checksum:              284

Satellite: RS-22
Catalog number: 27939
Epoch time:      10238.68518352
Element set:     486
Inclination:      097.8818 deg
RA of node:       101.1456 deg
Eccentricity:    0.0013134
Arg of perigee:   192.4727 deg
Mean anomaly:     167.6137 deg
Mean motion:   14.63445706 rev/day
Decay rate:        9.2e-07 rev/day^2
Epoch rev:           36926
Checksum:              326

Satellite: VO-52
Catalog number: 28650
Epoch time:      10238.29493973
Element set:     582
Inclination:      097.6860 deg
RA of node:       288.9717 deg
Eccentricity:    0.0028067
Arg of perigee:   048.9705 deg
Mean anomaly:     311.3954 deg
Mean motion:   14.81793850 rev/day
Decay rate:       -2.0e-07 rev/day^2
Epoch rev:           28707
Checksum:              347

Satellite: SO-67
Catalog number: 35870
Epoch time:      10238.88912037
Element set:      47
Inclination:      097.3261 deg
RA of node:       286.1334 deg
Eccentricity:    0.0002338
Arg of perigee:   178.5574 deg
Mean anomaly:     182.4845 deg
Mean motion:   15.21018150 rev/day
Decay rate:       6.59e-06 rev/day^2
Epoch rev:            5220
Checksum:              302

Satellite: HO-68
Catalog number: 36122
Epoch time:      10238.85969708
Element set:     615
Inclination:      100.4630 deg
RA of node:       298.5539 deg
Eccentricity:    0.0007427
Arg of perigee:   172.8070 deg
Mean anomaly:     187.3142 deg
Mean motion:   13.16281530 rev/day
Decay rate:       -4.5e-07 rev/day^2
Epoch rev:            3351
Checksum:              295

/EX
SB KEPS @ AMSAT  $ORB10238.D
Orbital Elements  10238.MICROS

HR AMSAT ORBITAL ELEMENTS FOR THE MICROSATS
FROM WA5QGD FORT WORTH,TX August 26, 2010
Send Subscribe/unsubscribe to KEPS at http://www.amsat.org/mailman/listinfo/kep
BID: ORB10238.D
TO ALL RADIO AMATEURS BT

Satellite: UO-11
Catalog number: 14781
Epoch time:      10238.34387758
Element set:     323
Inclination:      098.0499 deg
RA of node:       290.2747 deg
Eccentricity:    0.0009458
Arg of perigee:   018.6746 deg
Mean anomaly:     341.4780 deg
Mean motion:   14.79827701 rev/day
Decay rate:       -5.0e-08 rev/day^2
Epoch rev:           42218
Checksum:              326

Satellite: AO-16
Catalog number: 20439
Epoch time:      10237.78850355
Element set:     978
Inclination:      098.3378 deg
RA of node:       192.9772 deg
Eccentricity:    0.0010676
Arg of perigee:   325.3615 deg
Mean anomaly:     034.6876 deg
Mean motion:   14.31871407 rev/day
Decay rate:        9.0e-08 rev/day^2
Epoch rev:            7534
Checksum:              333

Satellite: LO-19
Catalog number: 20442
Epoch time:      10237.77506339
Element set:     887
Inclination:      098.2989 deg
RA of node:       198.4861 deg
Eccentricity:    0.0011424
Arg of perigee:   319.1499 deg
Mean anomaly:     040.8834 deg
Mean motion:   14.32101508 rev/day
Decay rate:       -1.4e-07 rev/day^2
Epoch rev:            7551
Checksum:              315

Satellite: AO-27
Catalog number: 22825
Epoch time:      10237.38734964
Element set:    0612
Inclination:      098.4898 deg
RA of node:       183.5634 deg
Eccentricity:    0.0009249
Arg of perigee:   068.5472 deg
Mean anomaly:     291.6703 deg
Mean motion:   14.29305146 rev/day
Decay rate:      -1.06e-06 rev/day^2
Epoch rev:           88193
Checksum:              336

Satellite: IO-26
Catalog number: 22826
Epoch time:      10237.58038949
Element set:    0348
Inclination:      098.4836 deg
RA of node:       184.3272 deg
Eccentricity:    0.0009896
Arg of perigee:   062.0569 deg
Mean anomaly:     298.1612 deg
Mean motion:   14.29562605 rev/day
Decay rate:       -1.0e-08 rev/day^2
Epoch rev:           88207
Checksum:              335

Satellite: GO-32
Catalog number: 25397
Epoch time:      10237.70316501
Element set:    0269
Inclination:      098.3160 deg
RA of node:       241.3323 deg
Eccentricity:    0.0002236
Arg of perigee:   072.7513 deg
Mean anomaly:     287.3918 deg
Mean motion:   14.23183261 rev/day
Decay rate:       -6.0e-07 rev/day^2
Epoch rev:           62993
Checksum:              283

